Content
SEND FEEDBACK

Daily
Averages
Monthly
Summary
United States of America

SOUTH LAKE TAHOE - AIRPORT, CALIFORNIA


Home > North America > United States > California
Elevation: 6250 feet     Latitude: 38 54N     Longitude: 120 00W

WEATHER
 
SELECT A DAY
Number of Records: 174,325;   Date Range: 1/1/95 - 7/22/14
 
SHARE

PRINT THIS DATA

[ ← Previous Day ]
WEATHER ALMANAC - MARCH 31, 2013
[ Next Day → ]
[ °C ]   °F
Weather ElementAverageHighLow
Temperature39.5 °F46.9 °F (1:53 pm)33.1 °F (9:53 pm)
Dewpoint32.4 °F35.6 °F (3:23 am)27 °F (1:53 pm)
Humidity76.9 %89 % (8:53 pm)46 % (1:53 pm)
Barometer30.02 in30.08 in (8:21 am)29.93 in (2:53 am)
Wind Speed3.8 mph13.8 mph (3:34 am)
Wind Gust24.2 mph (2:53 pm)
Weather ElementAverage
Visibility8.6 mi
Wind DirectionE (91.2 °)

Weather ElementTotal
Precipitation0.38 in
Heating Degree Days25 (Base 65)
Averaged from 34 records on March 31, 2013
WEATHER CONDITIONS BREAKOUT
WIND DIRECTION BREAKOUT
WEATHER BY HOUR - MARCH 31, 2013
[ °C ]   °F
Local TimeTemperatureDewpointHumidityBarometerVisibilityWind DirectionWind SpeedGust SpeedPrecipitationEventsConditions
1:53 AM37.9 °F34.0 °F86 %29.94 in10.0 miSouth (180°)3.5 mphMostly Cloudy
2:53 AM39.0 °F34.0 °F82 %29.93 in10.0 miCalmOvercast
3:23 AM42.8 °F35.6 °F76 %30.04 in4.0 miSSW (210°)10.4 mph18.4 mph0.04 inRainLight Rain
3:34 AM41.0 °F35.6 °F81 %30.05 in8.0 miSouth (190°)13.8 mph0.05 inRainLight Rain
3:53 AM41.0 °F34.0 °F76 %29.96 in10.0 miSouth (170°)9.2 mph0.05 inOvercast
4:53 AM39.0 °F34.0 °F82 %29.96 in10.0 miSW (220°)5.8 mph0.00 inOvercast
5:13 AM39.2 °F33.8 °F81 %30.06 in5.0 miSSW (210°)5.8 mph0.03 inRainRain
5:53 AM37.9 °F34.0 °F86 %29.99 in7.0 miSouth (180°)3.5 mph0.09 inRainLight Rain
6:08 AM37.4 °F33.8 °F87 %30.06 in10.0 miSSE (150°)3.5 mph0.01 inRainLight Rain
6:53 AM37.9 °F33.1 °F83 %30.01 in7.0 miSouth (190°)3.5 mph0.02 inRainLight Rain
7:17 AM37.4 °F33.8 °F87 %30.07 in10.0 miCalm0.01 inRainLight Rain
7:50 AM37.4 °F33.8 °F87 %30.07 in5.0 miCalm0.01 inRainLight Rain
7:53 AM37.9 °F33.1 °F83 %30.02 in5.0 miCalm0.01 inRainLight Rain
8:21 AM37.4 °F33.8 °F87 %30.08 in10.0 miCalm0.01 inOvercast
8:53 AM39.0 °F34.0 °F82 %30.02 in10.0 miCalm0.01 inOvercast
9:53 AM44.1 °F34.0 °F68 %30.01 in10.0 miCalmPartly Cloudy
10:53 AM43.0 °F32.0 °F65 %30.01 in10.0 miVariable3.5 mphClear
11:53 AM45.0 °F30.0 °F56 %30.01 in10.0 miSSW (200°)10.4 mph16.1 mphScattered Clouds
12:53 PM45.0 °F28.0 °F52 %30.01 in10.0 miSSW (210°)10.4 mph19.6 mphScattered Clouds
1:53 PM46.9 °F27.0 °F46 %30.00 in10.0 miSW (230°)8.1 mphScattered Clouds
2:53 PM45.0 °F30.0 °F56 %30.00 in10.0 miSSW (200°)13.8 mph24.2 mphMostly Cloudy
3:53 PM43.0 °F35.1 °F74 %29.99 in10.0 miSouth (180°)6.9 mph0.00 inScattered Clouds
4:53 PM45.0 °F28.0 °F52 %29.98 in10.0 miSSW (210°)8.1 mphClear
5:35 PM39.2 °F33.8 °F81 %30.06 in4.0 miSouth (170°)9.2 mph0.01 inRainLight Rain
5:44 PM39.2 °F33.8 °F81 %30.05 in2.5 miCalm0.01 inRainLight Rain
5:48 PM39.2 °F33.8 °F81 %30.05 in5.0 miCalm0.01 inRainLight Rain
5:53 PM39.0 °F33.1 °F79 %30.01 in10.0 miCalm0.01 inMostly Cloudy
6:12 PM39.2 °F33.8 °F81 %30.05 in10.0 miCalmScattered Clouds
6:53 PM39.0 °F32.0 °F76 %30.01 in10.0 miCalm0.00 inOvercast
8:53 PM34.0 °F30.9 °F89 %30.01 in10.0 miCalmClear
9:53 PM33.1 °F28.9 °F85 %30.01 in10.0 miCalmClear
10:07 PM33.8 °F28.4 °F81 %30.06 in10.0 miCalmPartly Cloudy
10:53 PM33.1 °F28.9 °F85 %30.01 in10.0 miCalmScattered Clouds
11:53 PM35.1 °F30.0 °F82 %29.99 in10.0 miCalmOvercast
Hourly data recorded from KTVL, located miles away from South Lake Tahoe - Airport, California







STORIES FROM OUR PARTNERS